TimeEST,TemperatureF,Dew PointF,Humidity,Sea Level PressureIn,VisibilityMPH,Wind Direction,Wind SpeedMPH,Gust SpeedMPH,PrecipitationIn,Events,Conditions,WindDirDegrees,DateUTC
12:16 AM,32.0,17.6,55,29.93,10.0,Calm,Calm,-,N/A,,Clear,0,1999-12-30 05:16:00
12:36 AM,35.6,14.0,41,29.93,10.0,West,4.6,-,N/A,,Clear,260,1999-12-30 05:36:00
12:56 AM,37.4,15.8,41,29.93,10.0,SW,6.9,-,N/A,,Clear,230,1999-12-30 05:56:00
1:16 AM,37.4,17.6,45,29.93,10.0,SSW,3.5,-,N/A,,Clear,210,1999-12-30 06:16:00
1:36 AM,37.4,19.4,48,29.93,10.0,Calm,Calm,-,N/A,,Clear,0,1999-12-30 06:36:00
1:56 AM,37.4,19.4,48,29.93,10.0,South,3.5,-,N/A,,Clear,190,1999-12-30 06:56:00
2:16 AM,37.4,19.4,48,29.92,10.0,SW,3.5,-,N/A,,Clear,220,1999-12-30 07:16:00
2:36 AM,37.4,17.6,45,29.92,10.0,SSW,4.6,-,N/A,,Clear,200,1999-12-30 07:36:00
2:56 AM,37.4,17.6,45,29.92,10.0,SW,3.5,-,N/A,,Clear,230,1999-12-30 07:56:00
3:16 AM,37.4,17.6,45,29.92,10.0,WSW,11.5,17.3,N/A,,Clear,240,1999-12-30 08:16:00
3:36 AM,37.4,19.4,48,29.92,10.0,West,6.9,-,N/A,,Clear,260,1999-12-30 08:36:00
3:56 AM,37.4,19.4,48,29.92,10.0,WSW,4.6,-,N/A,,Clear,240,1999-12-30 08:56:00
4:16 AM,37.4,21.2,52,29.92,10.0,Calm,Calm,-,N/A,,Clear,0,1999-12-30 09:16:00
4:36 AM,37.4,19.4,48,29.93,10.0,Calm,Calm,-,N/A,,Clear,0,1999-12-30 09:36:00
4:56 AM,37.4,19.4,48,29.93,10.0,West,5.8,-,N/A,,Clear,260,1999-12-30 09:56:00
5:16 AM,37.4,21.2,52,29.93,10.0,West,5.8,-,N/A,,Clear,260,1999-12-30 10:16:00
5:36 AM,37.4,21.2,52,29.93,10.0,West,4.6,-,N/A,,Clear,280,1999-12-30 10:36:00
5:56 AM,37.4,21.2,52,29.93,10.0,Calm,Calm,-,N/A,,Clear,0,1999-12-30 10:56:00
6:16 AM,37.4,21.2,52,29.93,10.0,Calm,Calm,-,N/A,,Clear,0,1999-12-30 11:16:00
6:36 AM,37.4,23.0,56,29.94,10.0,Calm,Calm,-,N/A,,Clear,0,1999-12-30 11:36:00
6:56 AM,37.4,23.0,56,29.94,10.0,Calm,Calm,-,N/A,,Clear,0,1999-12-30 11:56:00
7:16 AM,37.4,23.0,56,29.95,10.0,Calm,Calm,-,N/A,,Clear,0,1999-12-30 12:16:00
7:36 AM,37.4,23.0,56,29.96,10.0,Calm,Calm,-,N/A,,Clear,0,1999-12-30 12:36:00
7:56 AM,37.4,23.0,56,29.96,10.0,Calm,Calm,-,N/A,,Clear,0,1999-12-30 12:56:00
8:16 AM,39.2,24.8,56,29.96,10.0,Calm,Calm,-,N/A,,Clear,0,1999-12-30 13:16:00
8:36 AM,41.0,23.0,49,29.96,10.0,WNW,3.5,-,N/A,,Clear,290,1999-12-30 13:36:00
8:56 AM,42.8,23.0,46,29.97,10.0,West,8.1,20.7,N/A,,Clear,260,1999-12-30 13:56:00
9:16 AM,41.0,26.6,57,29.98,10.0,West,16.1,25.3,N/A,,Clear,280,1999-12-30 14:16:00
9:36 AM,42.8,26.6,53,29.98,10.0,WNW,15.0,25.3,N/A,,Clear,290,1999-12-30 14:36:00
9:56 AM,44.6,26.6,49,29.99,10.0,NW,13.8,21.9,N/A,,Clear,320,1999-12-30 14:56:00
10:16 AM,46.4,26.6,46,29.99,10.0,WNW,13.8,19.6,N/A,,Clear,290,1999-12-30 15:16:00
10:36 AM,46.4,24.8,43,30.00,10.0,WNW,13.8,23.0,N/A,,Clear,290,1999-12-30 15:36:00
10:56 AM,46.4,24.8,43,29.99,10.0,West,9.2,18.4,N/A,,Clear,260,1999-12-30 15:56:00
11:16 AM,46.4,24.8,43,29.98,10.0,WSW,8.1,16.1,N/A,,Clear,240,1999-12-30 16:16:00
11:36 AM,46.4,24.8,43,29.99,10.0,SSW,4.6,-,N/A,,Clear,210,1999-12-30 16:36:00
11:56 AM,46.4,23.0,40,29.97,10.0,SW,8.1,-,N/A,,Clear,230,1999-12-30 16:56:00
12:16 PM,46.4,26.6,46,29.97,10.0,WSW,8.1,-,N/A,,Clear,240,1999-12-30 17:16:00
12:36 PM,46.4,26.6,46,29.97,10.0,West,9.2,-,N/A,,Clear,260,1999-12-30 17:36:00
12:56 PM,46.4,24.8,43,29.96,10.0,WSW,8.1,-,N/A,,Clear,250,1999-12-30 17:56:00
1:16 PM,48.2,26.6,43,29.95,10.0,SW,4.6,-,N/A,,Clear,230,1999-12-30 18:16:00
1:36 PM,50.0,24.8,37,29.94,10.0,WSW,8.1,-,N/A,,Clear,250,1999-12-30 18:36:00
1:56 PM,50.0,24.8,37,29.93,10.0,WSW,10.4,-,N/A,,Clear,250,1999-12-30 18:56:00
2:16 PM,50.0,24.8,37,29.93,10.0,WSW,9.2,-,N/A,,Clear,240,1999-12-30 19:16:00
2:36 PM,50.0,23.0,35,29.93,10.0,West,11.5,-,N/A,,Clear,270,1999-12-30 19:36:00
2:56 PM,50.0,23.0,35,29.92,10.0,WNW,9.2,17.3,N/A,,Clear,290,1999-12-30 19:56:00
3:16 PM,50.0,23.0,35,29.92,10.0,WNW,10.4,-,N/A,,Clear,300,1999-12-30 20:16:00
3:25 PM,50.0,23.0,35,29.93,10.0,WNW,10.4,-,N/A,,Clear,290,1999-12-30 20:25:00
6:56 PM,48.2,19.4,32,29.95,10.0,WSW,10.4,16.1,N/A,,Clear,240,1999-12-30 23:56:00
7:16 PM,46.4,19.4,34,29.96,10.0,WSW,8.1,-,N/A,,Clear,240,1999-12-31 00:16:00
7:36 PM,46.4,19.4,34,29.96,10.0,WSW,9.2,16.1,N/A,,Clear,250,1999-12-31 00:36:00
7:56 PM,46.4,21.2,37,29.97,10.0,WSW,8.1,-,N/A,,Clear,240,1999-12-31 00:56:00
8:16 PM,46.4,19.4,34,29.97,10.0,West,8.1,-,N/A,,Clear,260,1999-12-31 01:16:00
8:36 PM,46.4,19.4,34,29.96,10.0,West,8.1,-,N/A,,Clear,280,1999-12-31 01:36:00
8:56 PM,46.4,21.2,37,29.96,10.0,West,8.1,-,N/A,,Clear,270,1999-12-31 01:56:00
9:16 PM,46.4,21.2,37,29.96,10.0,West,6.9,-,N/A,,Clear,260,1999-12-31 02:16:00
9:36 PM,46.4,21.2,37,29.96,10.0,WSW,11.5,-,N/A,,Clear,250,1999-12-31 02:36:00
9:56 PM,46.4,21.2,37,29.96,10.0,WSW,10.4,16.1,N/A,,Clear,240,1999-12-31 02:56:00
10:16 PM,46.4,23.0,40,29.96,10.0,SW,9.2,17.3,N/A,,Clear,230,1999-12-31 03:16:00
10:36 PM,46.4,21.2,37,29.96,10.0,SW,11.5,18.4,N/A,,Clear,230,1999-12-31 03:36:00
10:56 PM,46.4,23.0,40,29.96,10.0,SW,9.2,-,N/A,,Clear,220,1999-12-31 03:56:00
11:16 PM,46.4,23.0,40,29.97,10.0,SSW,3.5,-,N/A,,Clear,210,1999-12-31 04:16:00
11:36 PM,46.4,23.0,40,29.95,10.0,WSW,17.3,26.5,N/A,,Clear,240,1999-12-31 04:36:00
11:56 PM,46.4,26.6,46,29.95,10.0,WSW,18.4,27.6,N/A,,Clear,250,1999-12-31 04:56:00